Overview Statistics Trail Chart Weather Telemetry Raw packets
 

This is the latest recevied weather packets stored in our database for station/object K7FLA. If no packets are shown the sender has not sent any weather packets the latest 10 day(s).

<< 41 42 43 44 45 46 47 >>
Time Temp. Humidity Pressure Rain* Wind** Luminosity Snow
1788394508 29.44° C 21% 1095 hPa 0 mm - 172 W/m² -
1788394207 28.89° C 21% 1095.1 hPa 0 mm - 189 W/m² -
1788393902 29.44° C 20% 1095.2 hPa 0 mm - 206 W/m² -
1788393601 29.44° C 21% 1095 hPa 0 mm - 224 W/m² -
1788393295 30° C 21% 1095 hPa 0 mm - 237 W/m² -
1788392990 30° C 21% 1095.2 hPa 0 mm - 249 W/m² -
1788392685 30° C 21% 1095.4 hPa 0 mm - 264 W/m² -
1788392384 30° C 19% 1095.3 hPa 0 mm - 276 W/m² -
1788392078 30.56° C 19% 1095.2 hPa 0 mm - 291 W/m² -
1788391778 30.56° C 19% 1095.4 hPa 0 mm - 307 W/m² -
1788391473 30.56° C 19% 1095.4 hPa 0 mm - 321 W/m² -
1788391182 30.56° C 18% 1095.5 hPa 0 mm - 336 W/m² -
1788390867 30.56° C 20% 1095.6 hPa 0 mm - 357 W/m² -
1788390562 30.56° C 19% 1095.4 hPa 0 mm - 374 W/m² -
1788390261 30.56° C 18% 1095.5 hPa 0 mm - 389 W/m² -
1788389955 30.56° C 19% 1095.6 hPa 0 mm - 404 W/m² -
1788389651 30.56° C 19% 1095.7 hPa 0 mm - 420 W/m² -
1788389349 30.56° C 19% 1095.7 hPa 0 mm - 436 W/m² -
1788389050 30.56° C 19% 1095.6 hPa 0 mm - 454 W/m² -
1788388747 30.56° C 19% 1096 hPa 0 mm - 469 W/m² -
1788388446 30.56° C 19% 1096.1 hPa 0 mm - 481 W/m² -
1788388141 30.56° C 19% 1096.1 hPa 0 mm - 497 W/m² -
1788387839 30.56° C 19% 1096 hPa 0 mm - 511 W/m² -
1788387539 30.56° C 18% 1096 hPa 0 mm - 525 W/m² -
1788387239 30.56° C 18% 1096.2 hPa 0 mm - 539 W/m² -

* Rain latest hour (hover to see other rain measurements)
** Current wind speed in m/s (hover to see current wind gust speed)